Avoca, PA

8:36 AM EST on November 17, 2019 (GMT -0500)
Wilkes-Barre-Scranton International

Weather History for KAVP - July, 2019

Change the Weather History Date:

Friday, July 26, 2019

  Actual Average Record
Temperature  
Mean Temperature 73 °F 72 °F  
Max Temperature 87 °F 82 °F 94 °F (2005)
Min Temperature 59 °F 61 °F 47 °F (1976)
Degree Days  
Heating Degree Days 0 0  
Month to date heating degree days 0  
Since 1 June heating degree days 54  
Since 1 July heating degree days 0  
Cooling Degree Days 8 7  
Month to date cooling degree days 177  
Year to date cooling degree days 331  
Since 1 June cooling degree days 294  
Growing Degree Days 23 (Base 50)    
Moisture  
Dew Point 58 °F    
Average Humidity 59    
Maximum Humidity 90    
Minimum Humidity 20    
Precipitation  
Precipitation 0.00 in 0.13 in 1.48 in (1985)
Month to date precipitation 3.14  
Year to date precipitation 20.97  
Sea Level Pressure  
Sea Level Pressure 30.26 in    
Wind  
Wind Speed 5 mph (ESE)    
Max Wind Speed 9 mph    
Max Gust Speed 18 mph    
Visibility 10 miles    
Events Thunderstorm    
T = Trace of Precipitation, MM = Missing Value Source: NWS Daily Summary

Daily Weather History Graph

Daily Weather History Graph

Search for Another Location

Airport or City:

Astronomy

Jul. 26, 2019 Rise Set
Actual Time 5:52 AM EDT 8:26 PM EDT
Civil Twilight 5:20 AM EDT 8:57 PM EDT
Nautical Twilight 4:40 AM EDT 9:37 PM EDT
Astronomical Twilight 3:55 AM EDT 10:21 PM EDT
Moon 1:05 AM EDT (7/26) 3:08 PM EDT (7/26)
Length of Visible Light 15h 37m
Length of Day
14h 34m
Waning Crescent, 34% of the Moon is Illuminated
Jul 26
Waning Crescent
Jul 31
New
Aug 7
First Quarter
Aug 15
Full
Aug 23
Last Quarter

Hourly Weather History & Observations

Time (EDT) Temp. Heat Index Dew Point Humidity Pressure Visibility Wind Dir Wind Speed Gust Speed Precip Events Conditions
12:54 AM 63.0 °F - 57.0 °F 81% 30.21 in 10.0 mi ESE 6.9 mph - N/A   Clear
1:54 AM 63.0 °F - 57.0 °F 81% 30.22 in 10.0 mi East 6.9 mph - N/A   Clear
2:54 AM 61.0 °F - 57.0 °F 87% 30.23 in 10.0 mi ESE 4.6 mph - N/A   Clear
3:54 AM 60.1 °F - 55.9 °F 86% 30.23 in 10.0 mi ESE 6.9 mph - N/A   Clear
4:54 AM 60.1 °F - 55.9 °F 86% 30.25 in 10.0 mi ESE 4.6 mph - N/A   Clear
5:54 AM 59.0 °F - 55.9 °F 90% 30.27 in 9.0 mi ESE 5.8 mph - N/A   Clear
6:54 AM 61.0 °F - 55.9 °F 83% 30.27 in 9.0 mi East 5.8 mph - N/A   Clear
7:54 AM 64.0 °F - 57.9 °F 80% 30.29 in 9.0 mi Calm Calm - N/A   Clear
8:54 AM 70.0 °F - 60.1 °F 71% 30.30 in 9.0 mi Calm Calm - N/A   Clear
9:54 AM 73.9 °F - 60.1 °F 62% 30.30 in 10.0 mi NW 3.5 mph - N/A   Clear
10:54 AM 78.1 °F - 60.1 °F 54% 30.29 in 10.0 mi Calm Calm - N/A   Clear
11:54 AM 81.0 °F 81.3 °F 59.0 °F 47% 30.29 in 10.0 mi Calm Calm - N/A   Clear
12:54 PM 84.0 °F 83.8 °F 59.0 °F 43% 30.27 in 10.0 mi Variable 3.5 mph - N/A   Clear
1:54 PM 84.9 °F 83.9 °F 57.0 °F 38% 30.26 in 10.0 mi Variable 4.6 mph - N/A   Clear
2:54 PM 86.0 °F 84.9 °F 57.0 °F 37% 30.25 in 10.0 mi North - - N/A   Clear
3:54 PM 86.0 °F 84.2 °F 54.0 °F 33% 30.25 in 10.0 mi West 5.8 mph - N/A   Clear
4:09 PM 87.1 °F 85.1 °F 54.0 °F 32% 30.26 in 10.0 mi NNW 4.6 mph - N/A Thunderstorm Clear
4:24 PM 87.1 °F 85.1 °F 54.0 °F 32% 30.26 in 10.0 mi WNW 5.8 mph - N/A   Clear
4:54 PM 87.1 °F - 52.0 °F 30% 30.23 in 10.0 mi NNW 6.9 mph - N/A   Clear
5:20 PM 86.0 °F - 51.1 °F 30% 30.26 in 10.0 mi North - - N/A Thunderstorm Clear
5:35 PM 84.0 °F 84.4 °F 61.0 °F 46% 30.26 in 10.0 mi Variable 4.6 mph - N/A   Clear
5:54 PM 81.0 °F 81.7 °F 61.0 °F 50% 30.25 in 10.0 mi South 9.2 mph 18.4 mph N/A   Scattered Clouds
6:54 PM 80.1 °F 81.1 °F 61.0 °F 52% 30.24 in 10.0 mi South 4.6 mph - N/A   Partly Cloudy
7:54 PM 78.1 °F - 60.1 °F 54% 30.26 in 10.0 mi West 6.9 mph - N/A   Clear
8:54 PM 73.0 °F - 61.0 °F 66% 30.25 in 10.0 mi SE 3.5 mph - N/A   Clear
9:54 PM 70.0 °F - 60.1 °F 71% 30.26 in 10.0 mi ESE 4.6 mph - N/A   Clear
10:54 PM 69.1 °F - 60.1 °F 73% 30.26 in 10.0 mi ESE 5.8 mph - N/A   Clear
11:54 PM 66.9 °F - 60.1 °F 79% 30.27 in 10.0 mi East 6.9 mph - N/A   Clear